Content
SEND FEEDBACK

Daily
Averages
Monthly
Summary
United States of America

SAND SPRINGS, KANSAS


Home > North America > United States > Kansas
Elevation: 1170 feet     Latitude: 38 54N     Longitude: 097 22W

WEATHER
 
SELECT A DAY
Number of Records: 190,077;   Date Range: 1/1/95 - 8/30/14
 
SHARE

PRINT THIS DATA

[ ← Previous Day ]
WEATHER ALMANAC - FEBRUARY 13, 2013
[ Next Day → ]
[ °C ]   °F
Weather ElementAverageHighLow
Temperature40.3 °F57.9 °F (3:53 pm)24.1 °F (6:53 am)
Dewpoint21.1 °F25 °F (11:53 am)17.1 °F (4:53 am)
Humidity50.2 %77 % (6:53 am)24 % (2:53 pm)
Barometer29.93 in30.00 in (1:53 am)29.85 in (4:53 pm)
Wind Speed8.9 mph20.7 mph (2:53 pm)
Wind Gust32.2 mph (2:53 pm)
Weather ElementAverage
Visibility10 mi
Wind DirectionWSW (240 °)

Weather ElementTotal
Precipitation---
Heating Degree Days24 (Base 65)
Averaged from 23 records on February 13, 2013
WEATHER CONDITIONS BREAKOUT
WIND DIRECTION BREAKOUT
WEATHER BY HOUR - FEBRUARY 13, 2013
[ °C ]   °F
Local TimeTemperatureDewpointHumidityBarometerVisibilityWind DirectionWind SpeedGust SpeedPrecipitationEventsConditions
1:53 AM27.0 °F19.9 °F75 %30.00 in10.0 miWNW (290°)4.6 mphClear
2:53 AM26.1 °F18.0 °F71 %30.00 in10.0 miWNW (300°)8.1 mphClear
3:53 AM26.1 °F18.0 °F71 %29.99 in10.0 miCalmClear
4:53 AM26.1 °F17.1 °F69 %29.99 in10.0 miWest (260°)5.8 mphClear
5:53 AM26.1 °F18.0 °F71 %29.98 in10.0 miSW (230°)4.6 mphClear
6:53 AM24.1 °F18.0 °F77 %29.97 in10.0 miSouth (190°)3.5 mphClear
7:53 AM27.0 °F19.0 °F72 %29.99 in10.0 miWSW (250°)5.8 mphClear
8:53 AM33.1 °F21.9 °F64 %29.99 in10.0 miWest (260°)8.1 mphClear
9:53 AM39.9 °F23.0 °F51 %29.99 in10.0 miWNW (290°)9.2 mphClear
10:53 AM45.0 °F23.0 °F42 %29.97 in10.0 miWest (260°)8.1 mphClear
11:53 AM48.9 °F25.0 °F39 %29.95 in10.0 miSW (230°)10.4 mphClear
12:53 PM53.1 °F21.0 °F29 %29.92 in10.0 miWest (270°)15.0 mph20.7 mphClear
1:53 PM55.0 °F19.9 °F25 %29.89 in10.0 miWest (260°)16.1 mphClear
2:53 PM57.0 °F19.9 °F24 %29.87 in10.0 miWest (280°)20.7 mph32.2 mphClear
3:53 PM57.9 °F21.0 °F24 %29.86 in10.0 miWNW (290°)18.4 mphClear
4:53 PM57.0 °F21.9 °F26 %29.85 in10.0 miWNW (290°)17.3 mphClear
5:53 PM51.1 °F21.9 °F32 %29.86 in10.0 miWest (270°)8.1 mphClear
6:53 PM43.0 °F21.9 °F43 %29.88 in10.0 miWest (280°)8.1 mphClear
7:53 PM44.1 °F21.9 °F42 %29.88 in10.0 miWest (260°)8.1 mphClear
8:53 PM42.1 °F23.0 °F47 %29.87 in10.0 miWSW (240°)10.4 mphClear
9:53 PM39.9 °F24.1 °F53 %29.88 in10.0 miWSW (250°)5.8 mphClear
10:53 PM37.9 °F23.0 °F55 %29.89 in10.0 miCalmClear
11:53 PM39.9 °F24.1 °F53 %29.90 in10.0 miWest (270°)9.2 mphClear
Hourly data recorded from KSLN, located miles away from Sand Springs, Kansas







STORIES FROM OUR PARTNERS